Location: Newark
(34.0635°N, 86.7609°W)
Time: 02:10:02
(UTC+00:00)

N. Korean satellite - Visible Passes

Search period start: 15 December 2019 00:00
Search period end: 25 December 2019 00:00
Orbit: 455 x 507 km, 97.2° (Epoch: 14 December)

Date Brightness Start Highest point End Pass type
(mag) Time Alt. Az. Time Alt. Az. Time Alt. Az.
15 Dec 9.5 10:49:27 10° NE 10:51:51 18° E 10:54:14 10° SE visible
16 Dec 6.8 11:56:32 10° N 11:59:49 41° WNW 12:03:03 10° SSW visible
17 Dec 10.2 00:03:37 10° WSW 00:04:46 11° W 00:05:55 10° WNW visible
17 Dec 6.6 11:30:59 10° NNE 11:34:26 77° ESE 11:37:50 10° S visible
17 Dec 9.3 23:36:10 10° SSW 23:39:11 24° W 23:42:13 10° NW visible
18 Dec 8.5 11:05:53 10° NE 11:08:57 30° E 11:12:00 10° SSE visible
18 Dec 7.5 23:10:06 10° S 23:13:42 55° W 23:17:18 10° NNW visible
19 Dec 9.8 10:41:35 10° ENE 10:43:23 14° E 10:45:10 10° SE visible
19 Dec 7.6 12:13:58 10° NNW 12:16:45 23° WNW 12:19:32 10° SW visible
20 Dec 6.5 11:48:03 10° N 11:51:26 55° WNW 11:54:46 10° SSW visible
20 Dec 9.9 23:54:17 10° SW 23:56:19 14° W 23:58:21 10° WNW visible
21 Dec 7.1 11:22:37 10° NNE 11:26:00 56° E 11:29:21 10° S visible
21 Dec 8.8 23:27:30 10° SSW 23:30:47 30° W 23:34:02 10° NW visible
22 Dec 9.0 10:57:41 10° NE 11:00:29 23° E 11:03:16 10° SSE visible
22 Dec 6.9 23:01:40 10° S 23:05:18 73° W 23:08:55 10° NNW visible
23 Dec 10.1 10:34:20 10° E 10:34:54 10° E 10:35:27 10° ESE visible
23 Dec 7.2 12:05:19 10° NNW 12:08:22 30° WNW 12:11:23 10° SW visible
24 Dec 6.3 11:39:35 10° N 11:43:00 76° WNW 11:46:24 10° SSW visible
24 Dec 9.7 23:45:19 10° SW 23:47:52 18° W 23:50:24 10° NW visible
